Date String (YYYY-MM-DD hh:mm:ss) UTC,Instrument flags,absolute air pressure of the measurement (hPa),sample flow rate (lpm),inlet stack bypass flow (lpm),air temperature of the measurement (°C),ambient temperature measured by the external sensor (°C),aerosol sample conditioner tube jacket temperature (°C),OPC LED temperature (°C),internal box temperature (°C),relative humidity of the measurement (%),span deviation,mass concentration of particles derived from Lorenz-Mie calculation of OPC scattering (μg/m³),mass concentration of particles derived from Lorenz-Mie calculation of OPC scattering (μg/m³),mass concentration of particles derived from Lorenz-Mie calculation of OPC scattering (μg/m³)
DateTimeUTC,F1_M11,P_M11,Q1_M11,Q2_M11,T1_M11,T2_M11,T3_M11,T4_M11,T5_M11,U1_M11,ZSPAN_M11,X0_M11,X2_M11,X1_M11
2023-10-20 11:00:00,SystemResetWarning,0832.2,5.01,000.00,029.2,027.9,000.0,037.6,030.8,7.7,0000.0,0002.23,0000.81,0000.52
2023-10-20 11:01:00,SystemResetWarning,0832.2,5.01,000.00,029.2,027.9,000.0,037.6,030.9,7.7,0000.0,0002.66,0000.82,0000.52
2023-10-20 11:02:00,SystemResetWarning,0832.2,5.00,000.00,029.2,027.9,000.0,037.6,030.9,7.8,0000.0,0002.63,0000.83,0000.52
2023-10-20 11:03:00,SystemResetWarning,0832.2,5.00,000.00,029.2,027.9,000.0,037.6,030.8,7.8,0000.0,0002.46,0000.80,0000.52
2023-10-20 11:04:00,SystemResetWarning,0832.2,4.99,000.00,029.2,027.9,000.0,037.6,030.9,7.7,0000.0,0002.32,0000.75,0000.52
2023-10-20 11:05:00,SystemResetWarning,0832.2,4.99,000.00,029.2,027.9,000.0,037.6,030.9,7.8,0000.0,0002.36,0000.74,0000.51
2023-10-20 11:06:00,SystemResetWarning,0832.2,5.01,000.00,029.2,027.9,000.0,037.6,030.9,7.8,0000.0,0002.34,0000.73,0000.51
2023-10-20 11:07:00,SystemResetWarning,0832.2,5.01,000.00,029.2,027.9,000.0,037.6,030.9,7.7,0000.0,0002.41,0000.76,0000.51
2023-10-20 11:08:00,SystemResetWarning,0832.2,5.00,000.00,029.2,027.9,000.0,037.6,030.9,7.9,0000.0,0002.39,0000.74,0000.51
2023-10-20 11:09:00,SystemResetWarning,0832.2,4.98,000.00,029.3,027.9,000.0,037.6,030.9,7.7,0000.0,0002.27,0000.73,0000.50
2023-10-20 11:10:00,SystemResetWarning,0832.2,5.01,000.00,029.3,027.9,000.0,037.6,030.9,7.7,0000.0,0002.02,0000.72,0000.48
2023-10-20 11:11:00,SystemResetWarning,0832.1,5.02,000.00,029.3,027.9,000.0,037.6,030.9,7.6,0000.0,0002.10,0000.72,0000.49
2023-10-20 11:12:00,SystemResetWarning,0832.1,5.00,000.00,029.3,027.9,000.0,037.7,030.9,7.7,0000.0,0001.49,0000.69,0000.48
2023-10-20 11:13:00,SystemResetWarning,0832.1,5.00,000.00,029.3,028.0,000.0,037.7,030.9,7.6,0000.0,0001.51,0000.68,0000.48
2023-10-20 11:14:00,SystemResetWarning,0832.1,4.99,000.00,029.3,028.0,000.0,037.7,031.0,7.6,0000.0,0001.45,0000.68,0000.48
2023-10-20 11:15:00,SystemResetWarning,0832.1,4.99,000.00,029.3,028.0,000.0,037.7,031.0,7.6,0000.0,0001.52,0000.71,0000.49
2023-10-20 11:16:00,SystemResetWarning,0832.1,5.01,000.00,029.3,028.0,000.0,037.7,031.0,7.7,0000.0,0001.68,0000.70,0000.49
2023-10-20 11:17:00,SystemResetWarning,0832.1,5.01,000.00,029.3,028.0,000.0,037.7,031.0,7.7,0000.0,0002.58,0000.68,0000.49
2023-10-20 11:18:00,SystemResetWarning,0832.1,5.00,000.00,029.3,028.0,000.0,037.7,031.0,7.7,0000.0,0002.49,0000.65,0000.49
2023-10-20 11:19:00,SystemResetWarning,0832.1,4.99,000.00,029.3,028.0,000.0,037.7,031.0,7.7,0000.0,0002.51,0000.65,0000.49
2023-10-20 11:20:00,SystemResetWarning,0832.1,5.01,000.00,029.3,027.9,000.0,037.7,030.9,7.6,0000.0,0002.49,0000.64,0000.49
2023-10-20 11:21:00,SystemResetWarning,0832.1,5.01,000.00,029.3,027.9,000.0,037.7,030.9,7.6,0000.0,0002.51,0000.67,0000.50
2023-10-20 11:22:00,SystemResetWarning,0832.1,5.01,000.00,029.4,027.9,000.0,037.7,031.0,7.6,0000.0,0002.54,0000.70,0000.50
2023-10-20 11:23:00,SystemResetWarning,0832.0,4.99,000.00,029.4,027.9,000.0,037.8,031.0,7.6,0000.0,0002.84,0000.69,0000.49
2023-10-20 11:24:00,SystemResetWarning,0832.0,4.99,000.00,029.4,027.9,000.0,037.8,031.0,7.6,0000.0,0002.87,0000.69,0000.48
2023-10-20 11:25:00,SystemResetWarning,0832.0,5.01,000.00,029.4,027.9,000.0,037.8,031.0,7.6,0000.0,0002.77,0000.68,0000.47
2023-10-20 11:26:00,SystemResetWarning,0832.0,5.01,000.00,029.3,027.9,000.0,037.7,031.0,7.6,0000.0,0002.73,0000.65,0000.47
2023-10-20 11:27:00,SystemResetWarning,0832.1,4.99,000.00,029.3,027.9,000.0,037.7,031.0,7.5,0000.0,0002.76,0000.66,0000.46
2023-10-20 11:28:00,SystemResetWarning,0832.0,4.99,000.00,029.3,027.9,000.0,037.7,031.0,7.5,0000.0,0001.74,0000.67,0000.46
2023-10-20 11:29:00,SystemResetWarning,0832.1,5.01,000.00,029.4,027.9,000.0,037.8,031.0,7.6,0000.0,0001.55,0000.66,0000.45
2023-10-20 11:30:00,SystemResetWarning,0832.1,5.01,000.00,029.4,027.9,000.0,037.8,031.0,7.6,0000.0,0001.56,0000.66,0000.45
2023-10-20 11:31:00,SystemResetWarning,0832.1,5.00,000.00,029.4,027.9,000.0,037.8,031.0,7.5,0000.0,0001.59,0000.67,0000.45
2023-10-20 11:32:00,SystemResetWarning,0832.1,4.99,000.00,029.4,027.9,000.0,037.8,031.0,7.5,0000.0,0001.58,0000.65,0000.44
2023-10-20 11:33:00,SystemResetWarning,0832.0,4.99,000.00,029.4,028.0,000.0,037.8,031.0,7.6,0000.0,0001.49,0000.60,0000.44
2023-10-20 11:34:00,SystemResetWarning,0832.0,5.00,000.00,029.4,028.0,000.0,037.8,031.0,7.6,0000.0,0001.49,0000.60,0000.44
2023-10-20 11:35:00,SystemResetWarning,0832.1,5.01,000.00,029.4,027.9,000.0,037.8,031.0,7.6,0000.0,0001.34,0000.59,0000.45
2023-10-20 11:36:00,SystemResetWarning,0832.0,5.01,000.00,029.4,027.9,000.0,037.8,031.0,7.6,0000.0,0002.04,0000.59,0000.45
2023-10-20 11:37:00,SystemResetWarning,0832.0,5.00,000.00,029.4,027.9,000.0,037.8,031.0,7.6,0000.0,0002.65,0000.63,0000.45
2023-10-20 11:38:00,SystemResetWarning,0832.0,4.98,000.00,029.4,027.9,000.0,037.8,031.0,7.5,0000.0,0002.66,0000.63,0000.45
2023-10-20 11:39:00,SystemResetWarning,0832.0,5.01,000.00,029.4,028.0,000.0,037.8,031.0,7.5,0000.0,0002.69,0000.63,0000.45
2023-10-20 11:40:00,SystemResetWarning,0832.0,5.01,000.00,029.4,028.0,000.0,037.8,031.0,7.5,0000.0,0002.73,0000.64,0000.45
2023-10-20 11:41:00,SystemResetWarning,0832.1,4.98,000.00,029.4,028.0,000.0,037.8,031.0,7.5,0000.0,0002.81,0000.66,0000.45
2023-10-20 11:42:00,SystemResetWarning,0832.1,4.99,000.00,029.4,028.0,000.0,037.8,031.0,7.5,0000.0,0002.93,0000.68,0000.45
2023-10-20 11:43:00,SystemResetWarning,0832.2,5.00,000.00,029.4,028.0,000.0,037.8,031.0,7.5,0000.0,0002.89,0000.66,0000.45
2023-10-20 11:44:00,SystemResetWarning,0832.2,5.01,000.00,029.4,028.0,000.0,037.8,031.0,7.5,0000.0,0002.84,0000.67,0000.45
2023-10-20 11:45:00,SystemResetWarning,0832.2,5.01,000.00,029.4,028.0,000.0,037.8,031.0,7.5,0000.0,0002.50,0000.67,0000.45
2023-10-20 11:46:00,SystemResetWarning,0832.2,5.00,000.00,029.4,028.0,000.0,037.8,031.0,7.5,0000.0,0002.47,0000.66,0000.45
2023-10-20 11:47:00,SystemResetWarning,0832.2,4.99,000.00,029.4,028.0,000.0,037.8,031.0,7.6,0000.0,0001.75,0000.67,0000.45
2023-10-20 11:48:00,SystemResetWarning,0832.1,5.00,000.00,029.4,028.0,000.0,037.8,031.0,7.6,0000.0,0001.21,0000.65,0000.45
2023-10-20 11:49:00,SystemResetWarning,0832.2,5.01,000.00,029.4,028.0,000.0,037.8,031.0,7.6,0000.0,0001.20,0000.62,0000.45
2023-10-20 11:50:00,SystemResetWarning,0832.1,5.00,000.00,029.4,028.0,000.0,037.8,031.0,7.6,0000.0,0001.11,0000.60,0000.45
2023-10-20 11:51:00,SystemResetWarning,0832.2,4.99,000.00,029.4,028.0,000.0,037.9,031.0,7.5,0000.0,0001.09,0000.61,0000.45
2023-10-20 11:52:00,SystemResetWarning,0832.2,5.00,000.00,029.4,026.9,000.0,037.8,031.0,7.5,0000.0,0001.03,0000.60,0000.45
2023-10-20 11:53:00,SystemResetWarning,0832.2,5.00,000.00,029.3,025.0,000.0,037.7,030.7,7.5,0000.0,0000.88,0000.58,0000.45
2023-10-20 11:54:00,SystemResetWarning,0832.2,5.01,000.00,029.2,024.5,000.0,037.7,030.5,7.5,0000.0,0000.91,0000.60,0000.46
2023-10-20 11:55:00,SystemResetWarning,0832.2,5.01,000.00,029.1,024.7,000.0,037.7,030.3,7.7,0000.0,0000.94,0000.61,0000.46
2023-10-20 11:56:00,SystemResetWarning,0832.2,5.00,000.00,028.9,025.1,000.0,037.6,030.2,7.9,0000.0,0000.95,0000.62,0000.47
2023-10-20 11:57:00,SystemResetWarning,0832.2,5.00,000.00,028.9,025.4,000.0,037.6,030.2,7.8,0000.0,0000.99,0000.64,0000.48
2023-10-20 11:58:00,SystemResetWarning,0832.2,5.00,000.00,028.8,025.8,000.0,037.6,030.2,7.8,0000.0,0001.20,0000.67,0000.48
2023-10-20 11:59:00,SystemResetWarning,0832.2,5.00,000.00,028.8,026.1,000.0,037.5,030.2,7.8,0000.0,0001.15,0000.66,0000.48
